Weather History for Rutland, VT

Change the Weather History Date:

Saturday, December 1, 2012

  Actual Average Record
Temperature  
Mean Temperature 27 °F -  
Max Temperature 36 °F - 66 °F (2006)
Min Temperature 18 °F - -1 °F (1958)
Degree Days  
Heating Degree Days 38    
Month to date heating degree days 38  
Since 1 July heating degree days 1392  
Cooling Degree Days 0    
Month to date cooling degree days 0  
Year to date cooling degree days 411  
Moisture  
Dew Point 21 °F    
Average Humidity 77    
Maximum Humidity 92    
Minimum Humidity 62    
Precipitation  
Precipitation 0.00 in - 1.38 in (2006)
Month to date precipitation 0.00  
Year to date precipitation 21.85  
Sea Level Pressure  
Sea Level Pressure 30.48 in    
Wind  
Wind Speed 15 mph (SE)    
Max Wind Speed 25 mph    
Max Gust Speed 32 mph    
Visibility 9 miles    
Events      
T = Trace of Precipitation, MM = Missing Value Source: NWS Daily Summary

Daily Weather History Graph

Daily Weather History Graph

Search for Another Location

Airport:

Trip Planner

Search our weather history database for the weather conditions in past years. The results will help you decide how hot, cold, wet, or windy it might be!

Date:

Astronomy

Dec. 01, 2012 Rise Set
Actual Time 7:05 AM EST 4:16 PM EST
Civil Twilight 6:33 AM EST 4:48 PM EST
Nautical Twilight 5:57 AM EST 5:24 PM EST
Astronomical Twilight 5:23 AM EST 5:58 PM EST
Moon 7:05 PM EST (12/1) 9:15 AM EST (12/1)
Length of Visible Light 10h 15m
Length of Day
9h 10m
Waning Gibbous, 92% of the Moon is Illuminated
Dec 1
Waning Gibbous
Dec 6
Last Quarter
Dec 13
New
Dec 20
First Quarter
Dec 28
Full

Hourly Weather History & Observations

Time (EST) Temp. Windchill Dew Point Humidity Pressure Visibility Wind Dir Wind Speed Gust Speed Precip Events Conditions
12:15 AM 17.6 °F 12.3 °F 12.2 °F 79% 30.52 in 10.0 mi North 3.5 mph - N/A   Overcast
12:35 AM 17.6 °F 12.3 °F 12.2 °F 79% 30.52 in 10.0 mi NNW 3.5 mph - N/A   Overcast
12:55 AM 17.6 °F - 12.2 °F 79% 30.52 in 10.0 mi Calm Calm - N/A   Overcast
1:15 AM 17.6 °F - 14.0 °F 86% 30.52 in 5.0 mi Calm Calm - N/A   Overcast
1:35 AM 19.4 °F 12.8 °F 12.2 °F 74% 30.52 in 9.0 mi East 4.6 mph - N/A   Overcast
1:55 AM 19.4 °F 8.6 °F 12.2 °F 74% 30.51 in 10.0 mi SE 9.2 mph - N/A   Overcast
2:15 AM 19.4 °F 10.4 °F 10.4 °F 68% 30.50 in 10.0 mi South 6.9 mph - N/A   Mostly Cloudy
2:35 AM 19.4 °F 9.5 °F 10.4 °F 68% 30.50 in 10.0 mi SSE 8.1 mph - N/A   Overcast
3:15 AM 21.2 °F 11.7 °F 10.4 °F 63% 30.49 in 10.0 mi SE 8.1 mph - N/A   Overcast
3:55 AM 21.2 °F 10.1 °F 12.2 °F 68% 30.49 in 10.0 mi SE 10.4 mph - N/A   Mostly Cloudy
4:15 AM 21.2 °F 10.1 °F 12.2 °F 68% 30.50 in 10.0 mi SE 10.4 mph - N/A   Overcast
4:35 AM 21.2 °F 10.1 °F 12.2 °F 68% 30.51 in 10.0 mi SE 10.4 mph - N/A   Overcast
4:55 AM 21.2 °F 8.9 °F 12.2 °F 68% 30.51 in 10.0 mi ESE 12.7 mph - N/A   Overcast
5:15 AM 21.2 °F 10.9 °F 12.2 °F 68% 30.51 in 10.0 mi SSE 9.2 mph - N/A   Overcast
5:35 AM 21.2 °F 10.9 °F 12.2 °F 68% 30.52 in 10.0 mi South 9.2 mph - N/A   Overcast
5:55 AM 21.2 °F 10.1 °F 14.0 °F 74% 30.53 in 10.0 mi South 10.4 mph - N/A   Overcast
6:15 AM 21.2 °F 10.1 °F 15.8 °F 80% 30.52 in 10.0 mi South 10.4 mph - N/A   Overcast
6:35 AM 21.2 °F 9.5 °F 15.8 °F 80% 30.51 in 8.0 mi South 11.5 mph - N/A   Overcast
6:55 AM 21.2 °F 10.1 °F 15.8 °F 80% 30.51 in 6.0 mi South 10.4 mph 16.1 mph N/A   Overcast
7:15 AM 21.2 °F 12.6 °F 17.6 °F 86% 30.52 in 4.0 mi South 6.9 mph 16.1 mph N/A   Overcast
7:35 AM 23.0 °F 17.0 °F 17.6 °F 80% 30.54 in 10.0 mi SSW 4.6 mph - N/A   Overcast
7:55 AM 24.8 °F 14.0 °F 17.6 °F 74% 30.54 in 10.0 mi ESE 11.5 mph 18.4 mph N/A   Overcast
8:15 AM 24.8 °F 11.9 °F 17.6 °F 74% 30.54 in 10.0 mi ESE 16.1 mph 24.2 mph N/A   Overcast
8:35 AM 24.8 °F 12.9 °F 19.4 °F 80% 30.54 in 3.0 mi SE 13.8 mph - N/A   Overcast
8:55 AM 24.8 °F 13.4 °F 17.6 °F 74% 30.54 in 8.0 mi SSE 12.7 mph - N/A   Overcast
9:15 AM 24.8 °F 15.3 °F 19.4 °F 80% 30.53 in 7.0 mi SSE 9.2 mph - N/A   Overcast
9:35 AM 24.8 °F 14.0 °F 19.4 °F 80% 30.53 in 5.0 mi SE 11.5 mph - N/A   Overcast
9:55 AM 26.6 °F 16.8 °F 19.4 °F 74% 30.53 in 7.0 mi SSE 10.4 mph - N/A   Overcast
10:15 AM 26.6 °F 14.7 °F 19.4 °F 74% 30.53 in 10.0 mi SE 15.0 mph 19.6 mph N/A   Overcast
10:35 AM 26.6 °F 15.2 °F 19.4 °F 74% 30.52 in 10.0 mi SE 13.8 mph 21.9 mph N/A   Overcast
11:15 AM 26.6 °F 13.4 °F 19.4 °F 74% 30.51 in 10.0 mi ESE 18.4 mph 27.6 mph N/A   Overcast
11:35 AM 28.4 °F 15.1 °F 19.4 °F 69% 30.50 in 5.0 mi SE 20.7 mph 25.3 mph N/A   Overcast
12:15 PM 28.4 °F 16.2 °F 21.2 °F 74% 30.48 in 5.0 mi ESE 17.3 mph 23.0 mph N/A   Overcast
12:35 PM 28.4 °F 15.4 °F 23.0 °F 80% 30.46 in 7.0 mi ESE 19.6 mph 25.3 mph N/A   Overcast
1:15 PM 28.4 °F 15.8 °F 23.0 °F 80% 30.45 in 10.0 mi ESE 18.4 mph 26.5 mph N/A   Overcast
1:35 PM 30.2 °F 18.1 °F 21.2 °F 69% 30.45 in 10.0 mi SE 18.4 mph 25.3 mph N/A   Overcast
1:55 PM 30.2 °F 17.8 °F 23.0 °F 75% 30.45 in 10.0 mi ESE 19.6 mph 25.3 mph N/A   Overcast
2:15 PM 30.2 °F 16.8 °F 23.0 °F 75% 30.45 in 10.0 mi ESE 23.0 mph 27.6 mph N/A   Overcast
2:35 PM 30.2 °F 17.8 °F 23.0 °F 75% 30.46 in 10.0 mi ESE 19.6 mph 28.8 mph N/A   Overcast
2:55 PM 30.2 °F 17.1 °F 23.0 °F 75% 30.46 in 10.0 mi ESE 21.9 mph 27.6 mph N/A   Overcast
3:15 PM 30.2 °F 17.4 °F 24.8 °F 80% 30.47 in 10.0 mi ESE 20.7 mph 28.8 mph N/A   Overcast
3:35 PM 30.2 °F 17.1 °F 24.8 °F 80% 30.46 in 10.0 mi ESE 21.9 mph 26.5 mph N/A   Overcast
3:55 PM 30.2 °F 17.8 °F 23.0 °F 75% 30.47 in 10.0 mi ESE 19.6 mph 25.3 mph N/A   Overcast
4:15 PM 30.2 °F 17.4 °F 24.8 °F 80% 30.46 in 10.0 mi ESE 20.7 mph 27.6 mph N/A   Overcast
4:35 PM 30.2 °F 17.4 °F 24.8 °F 80% 30.46 in 10.0 mi ESE 20.7 mph 26.5 mph N/A   Overcast
4:55 PM 30.2 °F 17.4 °F 24.8 °F 80% 30.45 in 10.0 mi ESE 20.7 mph 27.6 mph N/A   Overcast
5:15 PM 30.2 °F 17.8 °F 24.8 °F 80% 30.45 in 10.0 mi ESE 19.6 mph 29.9 mph N/A   Overcast
5:35 PM 30.2 °F 17.8 °F 26.6 °F 86% 30.45 in 10.0 mi ESE 19.6 mph 27.6 mph N/A   Overcast
5:55 PM 30.2 °F 17.4 °F 26.6 °F 86% 30.45 in 10.0 mi ESE 20.7 mph 27.6 mph N/A   Overcast
6:15 PM 30.2 °F 17.1 °F 26.6 °F 86% 30.44 in 10.0 mi ESE 21.9 mph 27.6 mph N/A   Overcast
6:55 PM 30.2 °F 17.4 °F 26.6 °F 86% 30.45 in 10.0 mi ESE 20.7 mph 29.9 mph N/A   Overcast
7:15 PM 30.2 °F 17.4 °F 26.6 °F 86% 30.45 in 10.0 mi ESE 20.7 mph 28.8 mph N/A   Overcast
7:35 PM 30.2 °F 17.4 °F 26.6 °F 86% 30.45 in 10.0 mi ESE 20.7 mph 31.1 mph N/A   Overcast
7:55 PM 30.2 °F 16.8 °F 28.4 °F 93% 30.44 in 10.0 mi ESE 23.0 mph 28.8 mph N/A   Overcast
8:15 PM 32.0 °F 19.2 °F 26.6 °F 80% 30.44 in 10.0 mi ESE 23.0 mph 28.8 mph N/A   Overcast
8:35 PM 32.0 °F 18.9 °F 26.6 °F 80% 30.43 in 10.0 mi ESE 24.2 mph 28.8 mph N/A   Overcast
8:55 PM 33.8 °F 21.0 °F 28.4 °F 81% 30.42 in 10.0 mi ESE 25.3 mph 32.2 mph N/A   Overcast
9:15 PM 33.8 °F 21.3 °F 28.4 °F 81% 30.41 in 10.0 mi ESE 24.2 mph 31.1 mph N/A   Overcast
9:35 PM 33.8 °F 22.5 °F 28.4 °F 81% 30.41 in 10.0 mi ESE 19.6 mph 27.6 mph N/A   Overcast
9:55 PM 33.8 °F 22.5 °F 28.4 °F 81% 30.41 in 10.0 mi ESE 19.6 mph 28.8 mph N/A   Overcast
10:15 PM 33.8 °F 22.8 °F 28.4 °F 81% 30.41 in 10.0 mi SE 18.4 mph 26.5 mph N/A   Overcast
10:35 PM 33.8 °F 22.8 °F 30.2 °F 87% 30.40 in 10.0 mi ESE 18.4 mph 23.0 mph N/A   Overcast
10:55 PM 33.8 °F 23.2 °F 30.2 °F 87% 30.40 in 10.0 mi SE 17.3 mph 23.0 mph N/A   Overcast
11:15 PM 33.8 °F 22.5 °F 30.2 °F 87% 30.39 in 10.0 mi ESE 19.6 mph 24.2 mph N/A   Overcast
11:35 PM 35.6 °F 25.2 °F 30.2 °F 81% 30.40 in 10.0 mi ESE 18.4 mph 23.0 mph N/A   Overcast
11:55 PM 35.6 °F 25.5 °F 30.2 °F 81% 30.39 in 10.0 mi ESE 17.3 mph 21.9 mph N/A   Overcast